contact:dominique.lefevre@mio.osupytheas.fr, maurice.libes@osupytheas.fr, didier.mallarino@osupytheas.fr
Project:EMSO http://www.emso-fr.org/EMSO-France
Depth: 2436.0 m
Title:EMSO Ligure Ouest : Data MII capteur MICROCAT
DateTime_Computer,Latitude,Longitude,Temperature,Conductivity,Pressure,DateTime_Instrument
DateTime_Computer,Latitude,Longitude,degC,S m-1,dbar,DateTime_Instrument
2021-05-27T00:01:39Z,42.805,6.029,13.3008,4.60016,2470.343,2021-5-27T02:02:51Z
2021-05-27T00:04:42Z,42.805,6.029,13.3004,4.60016,2470.38,2021-5-27T02:05:54Z
2021-05-27T00:07:45Z,42.805,6.029,13.3006,4.60016,2470.357,2021-5-27T02:08:57Z
2021-05-27T00:10:48Z,42.805,6.029,13.3005,4.60015,2470.343,2021-5-27T02:12:00Z
2021-05-27T00:13:51Z,42.805,6.029,13.3005,4.60015,2470.32,2021-5-27T02:15:03Z
2021-05-27T00:16:54Z,42.805,6.029,13.3006,4.60015,2470.343,2021-5-27T02:18:06Z
2021-05-27T00:19:58Z,42.805,6.029,13.3008,4.60015,2470.297,2021-5-27T02:21:10Z
2021-05-27T00:23:01Z,42.805,6.029,13.3007,4.60016,2470.32,2021-5-27T02:24:13Z
2021-05-27T00:26:04Z,42.805,6.029,13.3007,4.60021,2470.357,2021-5-27T02:27:16Z
2021-05-27T00:29:07Z,42.805,6.029,13.3006,4.60014,2470.334,2021-5-27T02:30:19Z
2021-05-27T00:32:10Z,42.805,6.029,13.3008,4.60016,2470.32,2021-5-27T02:33:22Z
2021-05-27T00:35:13Z,42.805,6.029,13.3006,4.60017,2470.343,2021-5-27T02:36:25Z
2021-05-27T00:38:16Z,42.805,6.029,13.3008,4.60016,2470.334,2021-5-27T02:39:28Z
2021-05-27T00:41:19Z,42.805,6.029,13.3007,4.60014,2470.357,2021-5-27T02:42:31Z
2021-05-27T00:44:23Z,42.805,6.029,13.3010,4.60015,2470.343,2021-5-27T02:45:35Z
2021-05-27T00:47:26Z,42.805,6.029,13.3006,4.60020,2470.297,2021-5-27T02:48:38Z
2021-05-27T00:50:29Z,42.805,6.029,13.3002,4.60016,2470.366,2021-5-27T02:51:41Z
2021-05-27T00:53:32Z,42.805,6.029,13.3008,4.60020,2470.357,2021-5-27T02:54:44Z
2021-05-27T00:56:35Z,42.805,6.029,13.3014,4.60016,2470.32,2021-5-27T02:57:47Z
2021-05-27T00:59:38Z,42.805,6.029,13.3011,4.60016,2470.297,2021-5-27T03:00:50Z
2021-05-27T01:02:41Z,42.805,6.029,13.3007,4.60015,2470.31,2021-5-27T03:03:53Z
2021-05-27T01:05:44Z,42.805,6.029,13.3010,4.60017,2470.32,2021-5-27T03:06:56Z
2021-05-27T01:08:48Z,42.805,6.029,13.3006,4.60016,2470.273,2021-5-27T03:10:00Z
2021-05-27T01:11:51Z,42.805,6.029,13.3015,4.60016,2470.297,2021-5-27T03:13:03Z
2021-05-27T01:14:54Z,42.805,6.029,13.3006,4.60016,2470.297,2021-5-27T03:16:06Z
2021-05-27T01:17:57Z,42.805,6.029,13.3007,4.60016,2470.297,2021-5-27T03:19:09Z
2021-05-27T01:21:00Z,42.805,6.029,13.3004,4.60018,2470.273,2021-5-27T03:22:12Z
2021-05-27T01:24:03Z,42.805,6.029,13.3008,4.60016,2470.334,2021-5-27T03:25:15Z
2021-05-27T01:27:06Z,42.805,6.029,13.3008,4.60016,2470.297,2021-5-27T03:28:18Z
2021-05-27T01:30:09Z,42.805,6.029,13.3004,4.60016,2470.334,2021-5-27T03:31:21Z
2021-05-27T01:33:13Z,42.805,6.029,13.3007,4.60015,2470.306,2021-5-27T03:34:25Z
2021-05-27T01:36:16Z,42.805,6.029,13.3007,4.60016,2470.297,2021-5-27T03:37:28Z
2021-05-27T01:39:19Z,42.805,6.029,13.3009,4.60019,2470.306,2021-5-27T03:40:31Z
2021-05-27T01:42:22Z,42.805,6.029,13.3009,4.60016,2470.334,2021-5-27T03:43:34Z
2021-05-27T01:45:25Z,42.805,6.029,13.3007,4.60015,2470.273,2021-5-27T03:46:37Z
2021-05-27T01:48:28Z,42.805,6.029,13.3006,4.60014,2470.297,2021-5-27T03:49:40Z
2021-05-27T01:51:31Z,42.805,6.029,13.3009,4.60014,2470.273,2021-5-27T03:52:43Z
2021-05-27T01:54:34Z,42.805,6.029,13.3008,4.60016,2470.25,2021-5-27T03:55:46Z
2021-05-27T01:57:38Z,42.805,6.029,13.3006,4.60015,2470.273,2021-5-27T03:58:50Z
2021-05-27T02:00:41Z,42.805,6.029,13.3004,4.60014,2470.287,2021-5-27T04:01:53Z
2021-05-27T02:03:44Z,42.805,6.029,13.3005,4.60013,2470.334,2021-5-27T04:04:56Z
2021-05-27T02:06:47Z,42.805,6.029,13.3004,4.60013,2470.31,2021-5-27T04:07:59Z
2021-05-27T02:09:50Z,42.805,6.029,13.3004,4.60014,2470.287,2021-5-27T04:11:02Z
2021-05-27T02:12:53Z,42.805,6.029,13.3005,4.60010,2470.25,2021-5-27T04:14:05Z
2021-05-27T02:15:56Z,42.805,6.029,13.3004,4.60011,2470.297,2021-5-27T04:17:08Z
2021-05-27T02:18:59Z,42.805,6.029,13.3004,4.60009,2470.287,2021-5-27T04:20:11Z
2021-05-27T02:22:03Z,42.805,6.029,13.3000,4.60010,2470.297,2021-5-27T04:23:14Z
2021-05-27T02:25:06Z,42.805,6.029,13.3004,4.60009,2470.273,2021-5-27T04:26:18Z
2021-05-27T02:28:09Z,42.805,6.029,13.3007,4.60011,2470.297,2021-5-27T04:29:21Z
2021-05-27T02:31:12Z,42.805,6.029,13.3002,4.60009,2470.31,2021-5-27T04:32:24Z
2021-05-27T02:34:15Z,42.805,6.029,13.3004,4.60010,2470.273,2021-5-27T04:35:27Z
2021-05-27T02:37:18Z,42.805,6.029,13.3003,4.60012,2470.273,2021-5-27T04:38:30Z
2021-05-27T02:40:21Z,42.805,6.029,13.3001,4.60010,2470.273,2021-5-27T04:41:33Z
2021-05-27T02:43:24Z,42.805,6.029,13.3004,4.60011,2470.297,2021-5-27T04:44:36Z
2021-05-27T02:46:28Z,42.805,6.029,13.3006,4.60008,2470.297,2021-5-27T04:47:39Z
2021-05-27T02:49:31Z,42.805,6.029,13.3003,4.60011,2470.273,2021-5-27T04:50:43Z
2021-05-27T02:52:34Z,42.805,6.029,13.3002,4.60006,2470.297,2021-5-27T04:53:46Z
2021-05-27T02:55:37Z,42.805,6.029,13.2999,4.60005,2470.287,2021-5-27T04:56:49Z
2021-05-27T02:58:40Z,42.805,6.029,13.3001,4.60006,2470.297,2021-5-27T04:59:52Z
2021-05-27T03:01:43Z,42.805,6.029,13.3000,4.60006,2470.297,2021-5-27T05:02:55Z
2021-05-27T03:04:46Z,42.805,6.029,13.2998,4.60005,2470.273,2021-5-27T05:05:58Z
2021-05-27T03:07:49Z,42.805,6.029,13.3002,4.60006,2470.297,2021-5-27T05:09:01Z
2021-05-27T03:10:52Z,42.805,6.029,13.2997,4.60007,2470.297,2021-5-27T05:12:04Z
2021-05-27T03:13:56Z,42.805,6.029,13.2996,4.60010,2470.334,2021-5-27T05:15:08Z
2021-05-27T03:16:59Z,42.805,6.029,13.2998,4.60005,2470.32,2021-5-27T05:18:11Z
2021-05-27T03:20:02Z,42.805,6.029,13.3000,4.60005,2470.31,2021-5-27T05:21:14Z
2021-05-27T03:23:05Z,42.805,6.029,13.2998,4.60006,2470.25,2021-5-27T05:24:17Z
2021-05-27T03:26:08Z,42.805,6.029,13.3001,4.60007,2470.31,2021-5-27T05:27:20Z
2021-05-27T03:29:11Z,42.805,6.029,13.2996,4.60005,2470.273,2021-5-27T05:30:23Z
2021-05-27T03:32:14Z,42.805,6.029,13.2998,4.60007,2470.31,2021-5-27T05:33:26Z
2021-05-27T03:35:17Z,42.805,6.029,13.2994,4.60006,2470.31,2021-5-27T05:36:29Z
2021-05-27T03:38:21Z,42.805,6.029,13.2998,4.60006,2470.273,2021-5-27T05:39:33Z
2021-05-27T03:41:24Z,42.805,6.029,13.2998,4.60005,2470.343,2021-5-27T05:42:36Z
2021-05-27T03:44:27Z,42.805,6.029,13.2997,4.60008,2470.287,2021-5-27T05:45:39Z
2021-05-27T03:47:30Z,42.805,6.029,13.2996,4.60005,2470.31,2021-5-27T05:48:42Z
2021-05-27T03:50:33Z,42.805,6.029,13.2996,4.60009,2470.287,2021-5-27T05:51:45Z
2021-05-27T03:53:36Z,42.805,6.029,13.3000,4.60011,2470.343,2021-5-27T05:54:48Z
2021-05-27T03:56:39Z,42.805,6.029,13.2998,4.60006,2470.32,2021-5-27T05:57:51Z
2021-05-27T03:59:42Z,42.805,6.029,13.2996,4.60005,2470.32,2021-5-27T06:00:54Z
2021-05-27T04:02:46Z,42.805,6.029,13.3003,4.60009,2470.32,2021-5-27T06:03:58Z
2021-05-27T04:05:49Z,42.805,6.029,13.2999,4.60008,2470.334,2021-5-27T06:07:01Z
2021-05-27T04:08:52Z,42.805,6.029,13.3000,4.60006,2470.32,2021-5-27T06:10:04Z
2021-05-27T04:11:55Z,42.805,6.029,13.2998,4.60004,2470.32,2021-5-27T06:13:07Z
2021-05-27T04:14:58Z,42.805,6.029,13.2996,4.60007,2470.273,2021-5-27T06:16:10Z
2021-05-27T04:18:01Z,42.805,6.029,13.2996,4.60006,2470.32,2021-5-27T06:19:13Z
2021-05-27T04:21:04Z,42.805,6.029,13.3000,4.60007,2470.38,2021-5-27T06:22:16Z
2021-05-27T04:24:07Z,42.805,6.029,13.2999,4.60009,2470.366,2021-5-27T06:25:19Z
2021-05-27T04:27:11Z,42.805,6.029,13.3000,4.60008,2470.343,2021-5-27T06:28:23Z
2021-05-27T04:30:14Z,42.805,6.029,13.3000,4.60006,2470.343,2021-5-27T06:31:26Z
2021-05-27T04:33:17Z,42.805,6.029,13.3000,4.60006,2470.366,2021-5-27T06:34:29Z
2021-05-27T04:36:20Z,42.805,6.029,13.2998,4.60006,2470.38,2021-5-27T06:37:32Z
2021-05-27T04:39:23Z,42.805,6.029,13.3001,4.60007,2470.38,2021-5-27T06:40:35Z
2021-05-27T04:42:26Z,42.805,6.029,13.3001,4.60005,2470.343,2021-5-27T06:43:38Z
2021-05-27T04:45:29Z,42.805,6.029,13.3003,4.60006,2470.366,2021-5-27T06:46:41Z
2021-05-27T04:48:32Z,42.805,6.029,13.3000,4.60006,2470.343,2021-5-27T06:49:44Z
2021-05-27T04:51:36Z,42.805,6.029,13.2998,4.60006,2470.32,2021-5-27T06:52:48Z
2021-05-27T04:54:39Z,42.805,6.029,13.3003,4.60005,2470.343,2021-5-27T06:55:51Z
2021-05-27T04:57:42Z,42.805,6.029,13.2998,4.60005,2470.366,2021-5-27T06:58:54Z
2021-05-27T05:00:45Z,42.805,6.029,13.2998,4.60005,2470.366,2021-5-27T07:01:57Z
2021-05-27T05:03:48Z,42.805,6.029,13.2998,4.60009,2470.357,2021-5-27T07:05:00Z
2021-05-27T05:06:51Z,42.805,6.029,13.3000,4.60008,2470.376,2021-5-27T07:08:03Z
2021-05-27T05:09:54Z,42.805,6.029,13.3002,4.60006,2470.413,2021-5-27T07:11:06Z
2021-05-27T05:12:57Z,42.805,6.029,13.2997,4.60008,2470.366,2021-5-27T07:14:09Z
2021-05-27T05:16:01Z,42.805,6.029,13.3000,4.60006,2470.39,2021-5-27T07:17:13Z
2021-05-27T05:19:04Z,42.805,6.029,13.3001,4.60005,2470.404,2021-5-27T07:20:16Z
2021-05-27T05:22:07Z,42.805,6.029,13.3000,4.60006,2470.38,2021-5-27T07:23:19Z
2021-05-27T05:25:10Z,42.805,6.029,13.3000,4.60006,2470.39,2021-5-27T07:26:22Z
2021-05-27T05:28:13Z,42.805,6.029,13.2998,4.60006,2470.39,2021-5-27T07:29:25Z
2021-05-27T05:31:16Z,42.805,6.029,13.3000,4.60007,2470.404,2021-5-27T07:32:28Z
2021-05-27T05:34:19Z,42.805,6.029,13.3004,4.60006,2470.39,2021-5-27T07:35:31Z
2021-05-27T05:37:22Z,42.805,6.029,13.3003,4.60006,2470.366,2021-5-27T07:38:34Z
2021-05-27T05:40:26Z,42.805,6.029,13.2996,4.60009,2470.39,2021-5-27T07:41:38Z
2021-05-27T05:43:29Z,42.805,6.029,13.2996,4.60008,2470.404,2021-5-27T07:44:41Z
2021-05-27T05:46:32Z,42.805,6.029,13.3000,4.60007,2470.39,2021-5-27T07:47:44Z
2021-05-27T05:49:35Z,42.805,6.029,13.2996,4.60006,2470.437,2021-5-27T07:50:47Z
2021-05-27T05:52:38Z,42.805,6.029,13.3001,4.60008,2470.413,2021-5-27T07:53:50Z
2021-05-27T05:55:41Z,42.805,6.029,13.3000,4.60009,2470.413,2021-5-27T07:56:53Z
2021-05-27T05:58:44Z,42.805,6.029,13.2999,4.60009,2470.39,2021-5-27T07:59:56Z
2021-05-27T06:01:47Z,42.805,6.029,13.3000,4.60009,2470.39,2021-5-27T08:02:59Z
2021-05-27T06:04:51Z,42.805,6.029,13.2997,4.60008,2470.404,2021-5-27T08:06:03Z
2021-05-27T06:07:54Z,42.805,6.029,13.2998,4.60007,2470.45,2021-5-27T08:09:06Z
2021-05-27T06:10:57Z,42.805,6.029,13.2998,4.60007,2470.427,2021-5-27T08:12:09Z
2021-05-27T06:14:00Z,42.805,6.029,13.3000,4.60013,2470.437,2021-5-27T08:15:12Z
2021-05-27T06:17:03Z,42.805,6.029,13.3004,4.60006,2470.45,2021-5-27T08:18:15Z
2021-05-27T06:20:06Z,42.805,6.029,13.2998,4.60008,2470.404,2021-5-27T08:21:18Z
2021-05-27T06:23:09Z,42.805,6.029,13.2998,4.60007,2470.437,2021-5-27T08:24:21Z
2021-05-27T06:26:12Z,42.805,6.029,13.3002,4.60007,2470.46,2021-5-27T08:27:24Z
2021-05-27T06:29:15Z,42.805,6.029,13.3004,4.60007,2470.45,2021-5-27T08:30:27Z
2021-05-27T06:32:19Z,42.805,6.029,13.3000,4.60007,2470.413,2021-5-27T08:33:31Z
2021-05-27T06:35:22Z,42.805,6.029,13.3000,4.60009,2470.427,2021-5-27T08:36:34Z
2021-05-27T06:38:25Z,42.805,6.029,13.2998,4.60007,2470.39,2021-5-27T08:39:37Z
2021-05-27T06:41:28Z,42.805,6.029,13.2995,4.60008,2470.437,2021-5-27T08:42:40Z
2021-05-27T06:44:31Z,42.805,6.029,13.2998,4.60007,2470.46,2021-5-27T08:45:43Z
2021-05-27T06:47:34Z,42.805,6.029,13.3000,4.60008,2470.427,2021-5-27T08:48:46Z
2021-05-27T06:50:37Z,42.805,6.029,13.2999,4.60007,2470.437,2021-5-27T08:51:49Z
2021-05-27T06:53:41Z,42.805,6.029,13.3000,4.60007,2470.46,2021-5-27T08:54:52Z
2021-05-27T06:56:44Z,42.805,6.029,13.3002,4.60006,2470.413,2021-5-27T08:57:56Z
2021-05-27T06:59:47Z,42.805,6.029,13.2998,4.60007,2470.376,2021-5-27T09:00:59Z
2021-05-27T07:02:50Z,42.805,6.029,13.3001,4.60007,2470.413,2021-5-27T09:04:02Z
2021-05-27T07:05:53Z,42.805,6.029,13.2997,4.60008,2470.413,2021-5-27T09:07:05Z
2021-05-27T07:08:56Z,42.805,6.029,13.3000,4.60006,2470.413,2021-5-27T09:10:08Z
2021-05-27T07:11:59Z,42.805,6.029,13.2998,4.60008,2470.45,2021-5-27T09:13:11Z
2021-05-27T07:15:02Z,42.805,6.029,13.3000,4.60006,2470.413,2021-5-27T09:16:14Z
2021-05-27T07:18:05Z,42.805,6.029,13.3004,4.60007,2470.437,2021-5-27T09:19:17Z
2021-05-27T07:21:09Z,42.805,6.029,13.2996,4.60007,2470.46,2021-5-27T09:22:21Z
2021-05-27T07:24:12Z,42.805,6.029,13.3000,4.60006,2470.413,2021-5-27T09:25:24Z
2021-05-27T07:27:15Z,42.805,6.029,13.2999,4.60008,2470.437,2021-5-27T09:28:27Z
2021-05-27T07:30:18Z,42.805,6.029,13.2998,4.60007,2470.45,2021-5-27T09:31:30Z
2021-05-27T07:33:21Z,42.805,6.029,13.3000,4.60008,2470.46,2021-5-27T09:34:33Z
2021-05-27T07:36:24Z,42.805,6.029,13.3000,4.60006,2470.45,2021-5-27T09:37:36Z
2021-05-27T07:39:27Z,42.805,6.029,13.3000,4.60006,2470.437,2021-5-27T09:40:39Z
2021-05-27T07:42:30Z,42.805,6.029,13.3002,4.60011,2470.45,2021-5-27T09:43:42Z
2021-05-27T07:45:34Z,42.805,6.029,13.2998,4.60006,2470.45,2021-5-27T09:46:46Z
2021-05-27T07:48:37Z,42.805,6.029,13.2998,4.60006,2470.413,2021-5-27T09:49:49Z
2021-05-27T07:51:40Z,42.805,6.029,13.2999,4.60008,2470.437,2021-5-27T09:52:52Z
2021-05-27T07:54:43Z,42.805,6.029,13.2996,4.60010,2470.46,2021-5-27T09:55:55Z
2021-05-27T07:57:46Z,42.805,6.029,13.2998,4.60006,2470.413,2021-5-27T09:58:58Z
2021-05-27T08:00:49Z,42.805,6.029,13.2997,4.60006,2470.413,2021-5-27T10:02:01Z
2021-05-27T08:03:52Z,42.805,6.029,13.2999,4.60007,2470.437,2021-5-27T10:05:04Z
2021-05-27T08:06:55Z,42.805,6.029,13.2998,4.60005,2470.413,2021-5-27T10:08:07Z
2021-05-27T08:09:59Z,42.805,6.029,13.2997,4.60005,2470.39,2021-5-27T10:11:11Z
2021-05-27T08:13:02Z,42.805,6.029,13.2998,4.60006,2470.404,2021-5-27T10:14:14Z
2021-05-27T08:16:05Z,42.805,6.029,13.2996,4.60004,2470.39,2021-5-27T10:17:17Z
2021-05-27T08:19:08Z,42.805,6.029,13.2999,4.60004,2470.39,2021-5-27T10:20:20Z
2021-05-27T08:22:11Z,42.805,6.029,13.2996,4.60006,2470.437,2021-5-27T10:23:23Z
2021-05-27T08:25:14Z,42.805,6.029,13.2993,4.60003,2470.39,2021-5-27T10:26:26Z
2021-05-27T08:28:17Z,42.805,6.029,13.2993,4.60003,2470.427,2021-5-27T10:29:29Z
2021-05-27T08:31:20Z,42.805,6.029,13.2997,4.60003,2470.39,2021-5-27T10:32:32Z
2021-05-27T08:34:24Z,42.805,6.029,13.2993,4.60006,2470.413,2021-5-27T10:35:36Z
2021-05-27T08:37:27Z,42.805,6.029,13.2995,4.60003,2470.366,2021-5-27T10:38:39Z
2021-05-27T08:40:30Z,42.805,6.029,13.2996,4.60003,2470.366,2021-5-27T10:41:42Z
2021-05-27T08:43:33Z,42.805,6.029,13.2998,4.60002,2470.39,2021-5-27T10:44:45Z
2021-05-27T08:46:36Z,42.805,6.029,13.3000,4.60003,2470.413,2021-5-27T10:47:48Z
2021-05-27T08:49:39Z,42.805,6.029,13.2997,4.60002,2470.39,2021-5-27T10:50:51Z
2021-05-27T08:52:42Z,42.805,6.029,13.2994,4.60003,2470.366,2021-5-27T10:53:54Z
2021-05-27T08:55:46Z,42.805,6.029,13.2997,4.60003,2470.38,2021-5-27T10:56:58Z
2021-05-27T08:58:49Z,42.805,6.029,13.2995,4.60003,2470.404,2021-5-27T11:00:01Z
2021-05-27T09:01:52Z,42.805,6.029,13.2993,4.60003,2470.38,2021-5-27T11:03:04Z
2021-05-27T09:04:55Z,42.805,6.029,13.2993,4.60005,2470.39,2021-5-27T11:06:07Z
2021-05-27T09:07:58Z,42.805,6.029,13.2999,4.60003,2470.366,2021-5-27T11:09:10Z
2021-05-27T09:11:01Z,42.805,6.029,13.2996,4.60003,2470.39,2021-5-27T11:12:13Z
2021-05-27T09:14:04Z,42.805,6.029,13.2996,4.60003,2470.39,2021-5-27T11:15:16Z
2021-05-27T09:17:07Z,42.805,6.029,13.2994,4.60003,2470.366,2021-5-27T11:18:19Z
2021-05-27T09:20:11Z,42.805,6.029,13.2993,4.60002,2470.357,2021-5-27T11:21:22Z
2021-05-27T09:23:14Z,42.805,6.029,13.2996,4.60003,2470.366,2021-5-27T11:24:26Z
2021-05-27T09:26:17Z,42.805,6.029,13.2996,4.60003,2470.32,2021-5-27T11:27:29Z
2021-05-27T09:29:20Z,42.805,6.029,13.3000,4.60003,2470.39,2021-5-27T11:30:32Z
2021-05-27T09:32:23Z,42.805,6.029,13.2996,4.60004,2470.38,2021-5-27T11:33:35Z
2021-05-27T09:35:26Z,42.805,6.029,13.2997,4.60003,2470.357,2021-5-27T11:36:38Z
2021-05-27T09:38:29Z,42.805,6.029,13.2994,4.60003,2470.404,2021-5-27T11:39:41Z
2021-05-27T09:41:32Z,42.805,6.029,13.2998,4.60003,2470.357,2021-5-27T11:42:44Z
2021-05-27T09:44:36Z,42.805,6.029,13.2996,4.60003,2470.343,2021-5-27T11:45:48Z
2021-05-27T09:47:39Z,42.805,6.029,13.2998,4.60003,2470.334,2021-5-27T11:48:51Z
2021-05-27T09:50:42Z,42.805,6.029,13.2997,4.60012,2470.343,2021-5-27T11:51:54Z
2021-05-27T09:53:45Z,42.805,6.029,13.2996,4.60004,2470.343,2021-5-27T11:54:57Z
2021-05-27T09:56:48Z,42.805,6.029,13.2999,4.60004,2470.357,2021-5-27T11:58:00Z
2021-05-27T09:59:51Z,42.805,6.029,13.2998,4.60004,2470.31,2021-5-27T12:01:03Z
2021-05-27T10:02:54Z,42.805,6.029,13.2996,4.60005,2470.32,2021-5-27T12:04:06Z
2021-05-27T10:05:57Z,42.805,6.029,13.2997,4.60004,2470.297,2021-5-27T12:07:09Z
2021-05-27T10:09:01Z,42.805,6.029,13.2996,4.60005,2470.343,2021-5-27T12:10:13Z
2021-05-27T10:12:04Z,42.805,6.029,13.2999,4.60003,2470.334,2021-5-27T12:13:16Z
2021-05-27T10:15:07Z,42.805,6.029,13.2995,4.60006,2470.366,2021-5-27T12:16:19Z
2021-05-27T10:18:10Z,42.805,6.029,13.3001,4.60005,2470.343,2021-5-27T12:19:22Z
2021-05-27T10:21:13Z,42.805,6.029,13.2998,4.60006,2470.32,2021-5-27T12:22:25Z
2021-05-27T10:24:16Z,42.805,6.029,13.2998,4.60006,2470.334,2021-5-27T12:25:28Z
2021-05-27T10:27:19Z,42.805,6.029,13.2997,4.60005,2470.334,2021-5-27T12:28:31Z
2021-05-27T10:30:22Z,42.805,6.029,13.3001,4.60005,2470.334,2021-5-27T12:31:34Z
2021-05-27T10:33:26Z,42.805,6.029,13.2993,4.60005,2470.32,2021-5-27T12:34:38Z
2021-05-27T10:36:29Z,42.805,6.029,13.2993,4.60005,2470.334,2021-5-27T12:37:41Z
2021-05-27T10:39:32Z,42.805,6.029,13.2996,4.60009,2470.334,2021-5-27T12:40:44Z
2021-05-27T10:42:35Z,42.805,6.029,13.2999,4.60005,2470.31,2021-5-27T12:43:47Z
2021-05-27T10:45:38Z,42.805,6.029,13.2999,4.60009,2470.32,2021-5-27T12:46:50Z
2021-05-27T10:48:41Z,42.805,6.029,13.2998,4.60004,2470.297,2021-5-27T12:49:53Z
2021-05-27T10:51:44Z,42.805,6.029,13.2996,4.60007,2470.297,2021-5-27T12:52:56Z
2021-05-27T10:54:47Z,42.805,6.029,13.2996,4.60004,2470.297,2021-5-27T12:55:59Z
2021-05-27T10:57:51Z,42.805,6.029,13.3001,4.60005,2470.287,2021-5-27T12:59:03Z
2021-05-27T11:00:54Z,42.805,6.029,13.3000,4.60005,2470.31,2021-5-27T13:02:06Z
2021-05-27T11:03:57Z,42.805,6.029,13.2994,4.60004,2470.273,2021-5-27T13:05:09Z
2021-05-27T11:07:00Z,42.805,6.029,13.2998,4.60005,2470.31,2021-5-27T13:08:12Z
2021-05-27T11:10:03Z,42.805,6.029,13.2999,4.60004,2470.297,2021-5-27T13:11:15Z
2021-05-27T11:13:06Z,42.805,6.029,13.2998,4.60004,2470.297,2021-5-27T13:14:18Z
2021-05-27T11:16:09Z,42.805,6.029,13.2996,4.60005,2470.273,2021-5-27T13:17:21Z
2021-05-27T11:19:13Z,42.805,6.029,13.2996,4.60004,2470.283,2021-5-27T13:20:24Z
2021-05-27T11:22:16Z,42.805,6.029,13.2996,4.60003,2470.273,2021-5-27T13:23:28Z
2021-05-27T11:25:19Z,42.805,6.029,13.2998,4.60005,2470.297,2021-5-27T13:26:31Z
2021-05-27T11:28:22Z,42.805,6.029,13.2997,4.60009,2470.297,2021-5-27T13:29:34Z
2021-05-27T11:31:25Z,42.805,6.029,13.2998,4.60005,2470.31,2021-5-27T13:32:37Z
2021-05-27T11:34:28Z,42.805,6.029,13.2997,4.60009,2470.31,2021-5-27T13:35:40Z
2021-05-27T11:37:31Z,42.805,6.029,13.2999,4.60004,2470.273,2021-5-27T13:38:43Z
2021-05-27T11:40:34Z,42.805,6.029,13.2998,4.60005,2470.264,2021-5-27T13:41:46Z
2021-05-27T11:43:38Z,42.805,6.029,13.2997,4.60004,2470.273,2021-5-27T13:44:50Z
2021-05-27T11:46:41Z,42.805,6.029,13.2997,4.60004,2470.24,2021-5-27T13:47:53Z
2021-05-27T11:49:44Z,42.805,6.029,13.2997,4.60005,2470.273,2021-5-27T13:50:56Z
2021-05-27T11:52:47Z,42.805,6.029,13.2995,4.60006,2470.264,2021-5-27T13:53:59Z
2021-05-27T11:55:50Z,42.805,6.029,13.2997,4.60003,2470.24,2021-5-27T13:57:02Z
2021-05-27T11:58:53Z,42.805,6.029,13.2998,4.60003,2470.227,2021-5-27T14:00:05Z
2021-05-27T12:01:56Z,42.805,6.029,13.2998,4.60003,2470.264,2021-5-27T14:03:08Z
2021-05-27T12:04:59Z,42.805,6.029,13.2993,4.60004,2470.264,2021-5-27T14:06:11Z
2021-05-27T12:08:03Z,42.805,6.029,13.2998,4.60003,2470.227,2021-5-27T14:09:15Z
2021-05-27T12:11:06Z,42.805,6.029,13.3000,4.60003,2470.24,2021-5-27T14:12:18Z
2021-05-27T12:14:09Z,42.805,6.029,13.2996,4.60004,2470.25,2021-5-27T14:15:21Z
2021-05-27T12:17:12Z,42.805,6.029,13.2995,4.60003,2470.227,2021-5-27T14:18:24Z
2021-05-27T12:20:15Z,42.805,6.029,13.3000,4.60003,2470.24,2021-5-27T14:21:27Z
2021-05-27T12:23:18Z,42.805,6.029,13.2996,4.60008,2470.227,2021-5-27T14:24:30Z
2021-05-27T12:26:21Z,42.805,6.029,13.2996,4.60004,2470.24,2021-5-27T14:27:33Z
2021-05-27T12:29:24Z,42.805,6.029,13.2998,4.60006,2470.227,2021-5-27T14:30:36Z
2021-05-27T12:32:28Z,42.805,6.029,13.2996,4.60005,2470.227,2021-5-27T14:33:40Z
2021-05-27T12:35:31Z,42.805,6.029,13.2998,4.60006,2470.203,2021-5-27T14:36:43Z
2021-05-27T12:38:34Z,42.805,6.029,13.3001,4.60006,2470.203,2021-5-27T14:39:46Z
2021-05-27T12:41:37Z,42.805,6.029,13.2998,4.60006,2470.166,2021-5-27T14:42:49Z
2021-05-27T12:44:40Z,42.805,6.029,13.3002,4.60007,2470.18,2021-5-27T14:45:52Z
2021-05-27T12:47:43Z,42.805,6.029,13.3000,4.60005,2470.18,2021-5-27T14:48:55Z
2021-05-27T12:50:46Z,42.805,6.029,13.3000,4.60007,2470.18,2021-5-27T14:51:58Z
2021-05-27T12:53:49Z,42.805,6.029,13.2998,4.60006,2470.171,2021-5-27T14:55:01Z
2021-05-27T12:56:53Z,42.805,6.029,13.2997,4.60011,2470.217,2021-5-27T14:58:05Z
2021-05-27T12:59:56Z,42.805,6.029,13.3000,4.60005,2470.156,2021-5-27T15:01:08Z
2021-05-27T13:02:59Z,42.805,6.029,13.2999,4.60010,2470.194,2021-5-27T15:04:11Z
2021-05-27T13:06:02Z,42.805,6.029,13.3000,4.60007,2470.18,2021-5-27T15:07:14Z
2021-05-27T13:09:05Z,42.805,6.029,13.2999,4.60006,2470.11,2021-5-27T15:10:17Z
2021-05-27T13:12:08Z,42.805,6.029,13.3003,4.60007,2470.171,2021-5-27T15:13:20Z
2021-05-27T13:15:11Z,42.805,6.029,13.3003,4.60009,2470.156,2021-5-27T15:16:23Z
2021-05-27T13:18:15Z,42.805,6.029,13.3002,4.60010,2470.18,2021-5-27T15:19:27Z
2021-05-27T13:21:18Z,42.805,6.029,13.3000,4.60011,2470.18,2021-5-27T15:22:30Z
2021-05-27T13:24:21Z,42.805,6.029,13.3002,4.60008,2470.171,2021-5-27T15:25:33Z
2021-05-27T13:27:24Z,42.805,6.029,13.3005,4.60009,2470.133,2021-5-27T15:28:36Z
2021-05-27T13:30:27Z,42.805,6.029,13.3001,4.60007,2470.156,2021-5-27T15:31:39Z
2021-05-27T13:33:30Z,42.805,6.029,13.3003,4.60007,2470.133,2021-5-27T15:34:42Z
2021-05-27T13:36:33Z,42.805,6.029,13.3000,4.60007,2470.119,2021-5-27T15:37:45Z
2021-05-27T13:39:36Z,42.805,6.029,13.2998,4.60006,2470.147,2021-5-27T15:40:48Z
2021-05-27T13:42:40Z,42.805,6.029,13.3001,4.60007,2470.194,2021-5-27T15:43:52Z
2021-05-27T13:45:43Z,42.805,6.029,13.2998,4.60009,2470.147,2021-5-27T15:46:55Z
2021-05-27T13:48:46Z,42.805,6.029,13.3002,4.60007,2470.133,2021-5-27T15:49:58Z
2021-05-27T13:51:49Z,42.805,6.029,13.3000,4.60007,2470.171,2021-5-27T15:53:01Z
2021-05-27T13:54:52Z,42.805,6.029,13.3000,4.60008,2470.156,2021-5-27T15:56:04Z
2021-05-27T13:57:55Z,42.805,6.029,13.3001,4.60007,2470.156,2021-5-27T15:59:07Z
2021-05-27T14:00:58Z,42.805,6.029,13.3000,4.60006,2470.156,2021-5-27T16:02:10Z
2021-05-27T14:04:01Z,42.805,6.029,13.2998,4.60008,2470.11,2021-5-27T16:05:13Z
2021-05-27T14:07:05Z,42.805,6.029,13.3001,4.60009,2470.133,2021-5-27T16:08:17Z
2021-05-27T14:10:08Z,42.805,6.029,13.2998,4.60007,2470.119,2021-5-27T16:11:20Z
2021-05-27T14:13:11Z,42.805,6.029,13.3001,4.60007,2470.133,2021-5-27T16:14:23Z
2021-05-27T14:16:14Z,42.805,6.029,13.3002,4.60008,2470.171,2021-5-27T16:17:26Z
2021-05-27T14:19:17Z,42.805,6.029,13.3001,4.60007,2470.156,2021-5-27T16:20:29Z
2021-05-27T14:22:20Z,42.805,6.029,13.3001,4.60008,2470.156,2021-5-27T16:23:32Z
2021-05-27T14:25:23Z,42.805,6.029,13.2998,4.60009,2470.156,2021-5-27T16:26:35Z
2021-05-27T14:28:26Z,42.805,6.029,13.3003,4.60008,2470.147,2021-5-27T16:29:38Z
2021-05-27T14:31:30Z,42.805,6.029,13.3003,4.60010,2470.156,2021-5-27T16:32:42Z
2021-05-27T14:34:33Z,42.805,6.029,13.3001,4.60009,2470.133,2021-5-27T16:35:45Z
2021-05-27T14:37:36Z,42.805,6.029,13.3000,4.60011,2470.18,2021-5-27T16:38:48Z
2021-05-27T14:40:39Z,42.805,6.029,13.3005,4.60013,2470.147,2021-5-27T16:41:51Z
2021-05-27T14:43:42Z,42.805,6.029,13.3004,4.60010,2470.18,2021-5-27T16:44:54Z
2021-05-27T14:46:45Z,42.805,6.029,13.3006,4.60011,2470.133,2021-5-27T16:47:57Z
2021-05-27T14:49:48Z,42.805,6.029,13.3006,4.60011,2470.133,2021-5-27T16:51:00Z
2021-05-27T14:52:51Z,42.805,6.029,13.3008,4.60011,2470.156,2021-5-27T16:54:03Z
2021-05-27T14:55:55Z,42.805,6.029,13.3007,4.60013,2470.156,2021-5-27T16:57:07Z
2021-05-27T14:58:58Z,42.805,6.029,13.3009,4.60014,2470.171,2021-5-27T17:00:10Z
2021-05-27T15:02:01Z,42.805,6.029,13.3009,4.60014,2470.156,2021-5-27T17:03:13Z
2021-05-27T15:05:04Z,42.805,6.029,13.3019,4.60018,2470.171,2021-5-27T17:06:16Z
2021-05-27T15:08:07Z,42.805,6.029,13.3014,4.60019,2470.18,2021-5-27T17:09:19Z
2021-05-27T15:11:10Z,42.805,6.029,13.3006,4.60019,2470.18,2021-5-27T17:12:22Z
2021-05-27T15:14:13Z,42.805,6.029,13.3019,4.60021,2470.18,2021-5-27T17:15:25Z